TimeEST,TemperatureF,Dew PointF,Humidity,Sea Level PressureIn,VisibilityMPH,Wind Direction,Wind SpeedMPH,Gust SpeedMPH,PrecipitationIn,Events,Conditions,WindDirDegrees,DateUTC
12:51 AM,32.0,21.9,66,30.34,10.0,WNW,8.1,-,N/A,,Clear,290,2004-01-01 05:51:00
1:51 AM,32.0,21.9,66,30.35,10.0,Calm,Calm,-,N/A,,Clear,0,2004-01-01 06:51:00
2:51 AM,28.0,21.0,75,30.38,10.0,Calm,Calm,-,N/A,,Clear,0,2004-01-01 07:51:00
3:51 AM,27.0,19.9,75,30.40,10.0,Calm,Calm,-,N/A,,Clear,0,2004-01-01 08:51:00
4:51 AM,28.0,21.0,75,30.40,10.0,Calm,Calm,-,N/A,,Partly Cloudy,0,2004-01-01 09:51:00
5:51 AM,27.0,21.9,81,30.42,10.0,Calm,Calm,-,N/A,,Scattered Clouds,0,2004-01-01 10:51:00
6:51 AM,26.1,19.9,78,30.42,10.0,Calm,Calm,-,N/A,,Mostly Cloudy,0,2004-01-01 11:51:00
7:51 AM,25.0,19.9,81,30.42,10.0,Calm,Calm,-,N/A,,Mostly Cloudy,0,2004-01-01 12:51:00
8:51 AM,28.0,21.0,75,30.44,10.0,SSW,4.6,-,N/A,,Mostly Cloudy,200,2004-01-01 13:51:00
9:51 AM,32.0,23.0,69,30.45,10.0,Calm,Calm,-,N/A,,Mostly Cloudy,0,2004-01-01 14:51:00
10:51 AM,34.0,24.1,67,30.44,10.0,Calm,Calm,-,N/A,,Mostly Cloudy,0,2004-01-01 15:51:00
11:51 AM,37.0,24.1,59,30.40,10.0,SSE,6.9,-,N/A,,Mostly Cloudy,160,2004-01-01 16:51:00
12:51 PM,41.0,21.9,47,30.36,10.0,SSW,5.8,-,N/A,,Mostly Cloudy,210,2004-01-01 17:51:00
1:51 PM,44.1,24.1,45,30.31,10.0,SSE,5.8,-,N/A,,Mostly Cloudy,150,2004-01-01 18:51:00
2:51 PM,44.1,25.0,47,30.30,10.0,SSE,9.2,-,N/A,,Mostly Cloudy,150,2004-01-01 19:51:00
3:51 PM,44.1,28.9,55,30.28,10.0,South,6.9,-,N/A,,Overcast,170,2004-01-01 20:51:00
4:51 PM,43.0,30.9,62,30.26,10.0,South,8.1,-,0.00,Rain,Light Rain,170,2004-01-01 21:51:00
5:51 PM,44.1,30.9,60,30.23,10.0,South,8.1,-,0.00,,Overcast,170,2004-01-01 22:51:00
6:51 PM,44.1,32.0,63,30.23,10.0,SSE,5.8,-,N/A,,Overcast,160,2004-01-01 23:51:00
7:51 PM,46.0,30.9,56,30.18,10.0,South,11.5,-,N/A,,Overcast,180,2004-01-02 00:51:00
8:51 PM,45.0,34.0,65,30.16,10.0,South,13.8,21.9,0.00,Rain,Light Rain,170,2004-01-02 01:51:00
9:51 PM,45.0,35.1,68,30.14,10.0,South,13.8,18.4,0.02,Rain,Light Rain,190,2004-01-02 02:51:00
10:39 PM,42.8,37.4,81,30.07,10.0,South,10.4,-,0.08,Rain,Light Rain,170,2004-01-02 03:39:00
10:51 PM,43.0,37.0,80,30.07,10.0,South,13.8,-,0.08,Rain,Light Rain,170,2004-01-02 03:51:00
11:17 PM,42.8,35.6,76,30.05,8.0,South,11.5,-,0.03,Rain,Light Rain,190,2004-01-02 04:17:00
11:51 PM,44.1,36.0,73,30.04,10.0,South,13.8,-,0.05,Rain,Light Rain,190,2004-01-02 04:51:00